Terminal Aerodrome Forecast
Issued by NWS Grand Forks, ND

Home | Current Version | Previous Version | Graphics & Text | Print | Product List | Glossary On
Versions: 1 2 3 4 5 6 7 8 9 10 11 12 13 14 15 16 17 18
000
FTUS43 KFGF 240600 AAA
TAFFAR
TAF AMD
KFAR 240607Z 2406/2506 15021KT P6SM OVC012
     FM241800 15020KT P6SM OVC040
      TEMPO 2420/2424 -RA=

USA.gov is the U.S. government's official web portal to all federal, state and local government web resources and services.